Weather History for Nashville, TN

Change the Weather History Date:

Tuesday, April 15, 2014

  Actual Average Record
Temperature  
Mean Temperature 42 °F 59 °F  
Max Temperature 48 °F 71 °F 87 °F (1936)
Min Temperature 36 °F 47 °F 28 °F (1950)
Degree Days  
Heating Degree Days 23 7  
Month to date heating degree days 94 137  
Since 1 July heating degree days 3821 3548  
Cooling Degree Days 0 1  
Month to date cooling degree days 24 15  
Year to date cooling degree days 24 23  
Moisture  
Dew Point 31 °F    
Average Humidity 65    
Maximum Humidity 92    
Minimum Humidity 37    
Precipitation  
Precipitation 0.21 in 0.12 in 3.28 in (1910)
Month to date precipitation 2.76 1.81  
Year to date precipitation 14.82 13.61  
Snow  
Snow T in 0.00 in T in (2014)
Month to date snowfall T 0.1  
Since 1 July snowfall 1.6 6.4  
Snow Depth 0.00 in    
Sea Level Pressure  
Sea Level Pressure 30.06 in    
Wind  
Wind Speed 12 mph (NNW)    
Max Wind Speed 22 mph    
Max Gust Speed 28 mph    
Visibility 9 miles    
Events Rain    
T = Trace of Precipitation, MM = Missing Value Source: NWS Daily Summary

Daily Weather History Graph

Daily Weather History Graph

Search for Another Location

Airport:

Trip Planner

Search our weather history database for the weather conditions in past years. The results will help you decide how hot, cold, wet, or windy it might be!

Date:

Astronomy

Apr. 15, 2014 Rise Set
Actual Time 6:13 AM CDT 7:20 PM CDT
Civil Twilight 5:47 AM CDT 7:47 PM CDT
Nautical Twilight 5:15 AM CDT 8:18 PM CDT
Astronomical Twilight 4:43 AM CDT 8:51 PM CDT
Moon 7:59 PM CDT (4/15) 6:21 AM CDT (4/15)
Length of Visible Light 13h 59m
Length of Day
13h 07m
Full, 100% of the Moon is Illuminated
Apr 15
Full
Apr 22
Last Quarter
Apr 29
New
May 6
First Quarter
May 14
Full

Hourly Weather History & Observations

Time (CDT) Temp. Windchill Dew Point Humidity Pressure Visibility Wind Dir Wind Speed Gust Speed Precip Events Conditions
12:09 AM 44.6 °F 38.4 °F 42.8 °F 93% 29.87 in 5.0 mi NNW 12.7 mph - 0.01 in Rain Light Rain
12:53 AM 44.1 °F 39.0 °F 42.1 °F 93% 29.89 in 4.0 mi NNW 9.2 mph - 0.03 in Rain Light Rain
1:25 AM 42.8 °F 37.5 °F 41.0 °F 93% 29.90 in 6.0 mi North 9.2 mph 19.6 mph 0.03 in Rain Light Rain
1:35 AM 42.8 °F 38.0 °F 41.0 °F 93% 29.91 in 4.0 mi NNW 8.1 mph - 0.03 in Rain Light Rain
1:53 AM 42.1 °F 34.9 °F 39.9 °F 92% 29.89 in 4.0 mi NNW 13.8 mph 25.3 mph 0.05 in   Overcast
2:15 AM 41.0 °F 32.2 °F 37.4 °F 87% 29.91 in 5.0 mi NNW 18.4 mph 24.2 mph 0.02 in Rain Light Rain
2:25 AM 39.2 °F 30.5 °F 37.4 °F 93% 29.91 in 4.0 mi NNW 16.1 mph 25.3 mph 0.04 in Rain Rain
2:53 AM 39.0 °F 29.9 °F 36.0 °F 89% 29.91 in 10.0 mi NNW 17.3 mph 27.6 mph 0.06 in Rain Light Rain
3:29 AM 37.4 °F 28.9 °F 35.6 °F 93% 29.94 in 9.0 mi NNW 13.8 mph 23.0 mph 0.01 in Rain Light Rain
3:36 AM 37.4 °F 30.8 °F 35.6 °F 93% 29.93 in 10.0 mi NNW 9.2 mph 20.7 mph 0.01 in Rain Light Rain
3:49 AM 37.4 °F 30.8 °F 35.6 °F 93% 29.94 in 8.0 mi NNW 9.2 mph 17.3 mph 0.03 in Rain Light Rain
3:53 AM 37.9 °F 30.5 °F 36.0 °F 93% 29.93 in 8.0 mi NNW 11.5 mph 17.3 mph 0.03 in Rain Light Rain
4:53 AM 37.0 °F 29.3 °F 34.0 °F 89% 29.98 in 7.0 mi NNW 11.5 mph 24.2 mph 0.03 in Rain Light Rain
5:53 AM 36.0 °F 28.5 °F 34.0 °F 93% 30.00 in 10.0 mi NNW 10.4 mph - 0.05 in Rain Light Rain
6:24 AM 37.4 °F 29.8 °F 33.8 °F 87% 30.02 in 10.0 mi NNW 11.5 mph - 0.00 in   Overcast
6:41 AM 37.4 °F 29.3 °F 33.8 °F 87% 30.02 in 10.0 mi NNW 12.7 mph 20.7 mph 0.00 in   Mostly Cloudy
6:53 AM 37.0 °F 28.9 °F 33.1 °F 86% 30.01 in 10.0 mi NNW 12.7 mph - 0.00 in   Mostly Cloudy
7:53 AM 36.0 °F 27.1 °F 33.1 °F 89% 30.05 in 9.0 mi NNW 13.8 mph - 0.00 in Rain Light Rain
8:53 AM 37.0 °F 29.8 °F 33.1 °F 86% 30.07 in 7.0 mi NNW 10.4 mph 21.9 mph 0.00 in Rain Light Rain
9:10 AM 37.4 °F 29.8 °F 32.0 °F 81% 30.07 in 10.0 mi NNW 11.5 mph 24.2 mph 0.00 in   Mostly Cloudy
9:53 AM 39.9 °F 32.9 °F 30.0 °F 68% 30.09 in 10.0 mi NNW 11.5 mph 23.0 mph 0.00 in   Mostly Cloudy
10:29 AM 41.0 °F 33.9 °F 28.4 °F 61% 30.10 in 10.0 mi NNW 12.7 mph 21.9 mph N/A   Mostly Cloudy
10:53 AM 41.0 °F 32.2 °F 28.9 °F 62% 30.12 in 10.0 mi NW 18.4 mph 25.3 mph N/A   Mostly Cloudy
11:53 AM 43.0 °F 36.0 °F 28.0 °F 56% 30.14 in 10.0 mi NNW 13.8 mph 23.0 mph N/A   Mostly Cloudy
12:53 PM 45.0 °F 37.4 °F 26.1 °F 48% 30.15 in 10.0 mi North 18.4 mph 21.9 mph N/A   Mostly Cloudy
1:53 PM 46.9 °F - 26.1 °F 44% 30.14 in 10.0 mi NNW 13.8 mph 25.3 mph N/A   Mostly Cloudy
2:53 PM 48.0 °F - 25.0 °F 41% 30.14 in 10.0 mi NNW 10.4 mph 20.7 mph N/A   Mostly Cloudy
3:53 PM 46.9 °F - 21.9 °F 37% 30.16 in 10.0 mi NNW 13.8 mph 23.0 mph N/A   Scattered Clouds
4:53 PM 46.0 °F 40.2 °F 21.9 °F 39% 30.18 in 10.0 mi North 12.7 mph - N/A   Scattered Clouds
5:53 PM 45.0 °F 38.2 °F 21.0 °F 39% 30.19 in 10.0 mi North 15.0 mph - N/A   Partly Cloudy
6:53 PM 43.0 °F 36.0 °F 21.9 °F 43% 30.19 in 10.0 mi North 13.8 mph 18.4 mph N/A   Partly Cloudy
7:53 PM 41.0 °F 35.2 °F 21.0 °F 45% 30.20 in 10.0 mi North 9.2 mph - N/A   Clear
8:53 PM 39.0 °F 33.4 °F 21.9 °F 50% 30.22 in 10.0 mi North 8.1 mph - N/A   Clear
9:53 PM 39.0 °F 33.4 °F 21.9 °F 50% 30.23 in 10.0 mi North 8.1 mph - N/A   Clear
10:53 PM 37.9 °F 32.7 °F 21.9 °F 53% 30.25 in 10.0 mi North 6.9 mph - N/A   Clear
11:53 PM 36.0 °F 33.3 °F 23.0 °F 59% 30.27 in 10.0 mi North 3.5 mph - N/A   Clear